Tinley Park, Illinois, United States (60477)
Lat: 41.57N, Lon: 87.78W
Wx Zone: ILZ014
Local Info
Past Weather Observations for Today

NOTE: This archive is for the closest National Weather Service station to Tinley Park. Information may differ from the station used for current weather conditions.

Click here for Long-term Archive

Time Weather Temperature Dewpoint Humidity Pressure Winds Precip Visibility
10:15
Overcast
Light Snow
21°F / -6°C 19°F / -7°C 93% 30.36 in
(1028 mb)
Calm - 1 1/4SM
09:55
Overcast
Light Snow
21°F / -6°C 18°F / -8°C 86% 30.36 in
(1028 mb)
Calm - 1SM
09:35
Overcast
Light Snow
21°F / -6°C 18°F / -8°C 86% 30.39 in
(1029 mb)
Calm - 1SM
09:15
Overcast
Light Snow
19°F / -7°C 18°F / -8°C 93% 30.36 in
(1028 mb)
Calm - 1SM
08:55
Overcast
Light Snow
19°F / -7°C 18°F / -8°C 93% 30.39 in
(1029 mb)
Calm - 1 1/4SM
08:35
Overcast
Light Snow
19°F / -7°C 18°F / -8°C 93% 30.39 in
(1029 mb)
Calm - 1 1/2SM
08:15
Overcast
Light Snow
19°F / -7°C 18°F / -8°C 93% 30.39 in
(1029 mb)
Calm - 5SM
07:55
Overcast
19°F / -7°C 18°F / -8°C 93% 30.39 in
(1029 mb)
Calm - 7SM
07:35
Mostly Cloudy
19°F / -7°C 16°F / -9°C 86% 30.39 in
(1029 mb)
Calm - 7SM
07:15
Mostly Cloudy
18°F / -8°C 16°F / -9°C 93% 30.39 in
(1029 mb)
Calm - 7SM
06:55
Overcast
18°F / -8°C 16°F / -9°C 93% 30.39 in
(1029 mb)
SE 3.5 mph
(SE 6 kph)
- 7SM
06:35
Partly Cloudy
18°F / -8°C 16°F / -9°C 93% 30.39 in
(1029 mb)
Calm - 7SM
06:15
Partly Cloudy
16°F / -9°C 16°F / -9°C 100% 30.39 in
(1029 mb)
Calm - 7SM
05:55
Mostly Cloudy
18°F / -8°C 16°F / -9°C 93% 30.39 in
(1029 mb)
Calm - 7SM
05:35
Overcast
Fog And Mist
16°F / -9°C 14°F / -10°C 93% 30.39 in
(1029 mb)
Calm - 5SM
05:15
Overcast
18°F / -8°C 16°F / -9°C 93% 30.39 in
(1029 mb)
Calm - 7SM
04:55
Overcast
18°F / -8°C 16°F / -9°C 93% 30.39 in
(1029 mb)
Calm - 7SM
04:35
Mostly Cloudy
18°F / -8°C 16°F / -9°C 93% 30.39 in
(1029 mb)
Calm - 10SM
04:15
Overcast
18°F / -8°C 16°F / -9°C 93% 30.39 in
(1029 mb)
Calm - 10SM
03:55
Mostly Cloudy
18°F / -8°C 14°F / -10°C 86% 30.39 in
(1029 mb)
Calm - 10SM
03:35
Mostly Cloudy
18°F / -8°C 16°F / -9°C 93% 30.39 in
(1029 mb)
Calm - 10SM
03:15
Overcast
18°F / -8°C 16°F / -9°C 93% 30.39 in
(1029 mb)
Calm - 10SM
02:55
Overcast
19°F / -7°C 16°F / -9°C 86% 30.42 in
(1030 mb)
S 3.5 mph
(S 6 kph)
- 10SM
02:35
Overcast
19°F / -7°C 16°F / -9°C 86% 30.42 in
(1030 mb)
SSE 3.5 mph
(SSE 6 kph)
- 10SM
02:15
Overcast
19°F / -7°C 16°F / -9°C 86% 30.42 in
(1030 mb)
S 3.5 mph
(S 6 kph)
- 10SM
01:55
Overcast
19°F / -7°C 16°F / -9°C 86% 30.42 in
(1030 mb)
Calm - 10SM
01:35
Overcast
Light Snow
19°F / -7°C 16°F / -9°C 86% 30.42 in
(1030 mb)
SE 5.8 mph
(SE 9 kph)
- 10SM
01:15
Overcast
19°F / -7°C 16°F / -9°C 86% 30.42 in
(1030 mb)
SE 6.9 mph
(SE 11 kph)
- 10SM
00:55
Overcast
Light Snow
19°F / -7°C 16°F / -9°C 86% 30.45 in
(1031 mb)
SSE 4.6 mph
(SSE 7 kph)
- 10SM
00:35
Overcast
Light Snow
19°F / -7°C 16°F / -9°C 86% 30.45 in
(1031 mb)
SSE 3.5 mph
(SSE 6 kph)
- 10SM
00:15
Overcast
19°F / -7°C 16°F / -9°C 86% 30.45 in
(1031 mb)
SSE 4.6 mph
(SSE 7 kph)
- 10SM
Time Weather Temperature Dewpoint Humidity Pressure Winds Precip Visibility


Weather for websites

WeatherForYou.com, LLC is not responsible for any damages or problems caused by this service. Current weather conditions are obtained from the closest station including government and personal stations which may have varying degrees of accuracy. Weather forecasts are derived from the NOAA NDFD. Like all things, this site belongs to Jesus Christ... He just trusts me to maintain it. If you have any questions or comments email webmaster@weatherforyou.com

Copyright © 2015, WeatherForYou.com LLC. All rights reserved.